Location: Aulnoy
(48.8410°N, 3.0967°E)
Time: 15:08:41
(UTC+00:00)

CSL-04 Debris - Pass Details

Date: 09 February 2023
Orbit: 826 x 845 km, 98.8° (Epoch: 25 March)

Event Time Altitude Azimuth Distance (km) Brightness Sun altitude
Exits shadow 18:42:02 20° 127° (SE) 1,814 5.5 -17.5°
Maximum altitude 18:45:22 44° 66° (ENE) 1,138 4.4 -18.0°
Drops below altitude 10° 18:50:27 10° 356° (N) 2,441 6.6 -18.9°
Sets 18:52:53 0° 350° (N) 3,378 7.5 -19.3°
